DW5988 Weather Reports


time (UTC)temp
F
wind
direction
speed
knots
gust
knots
rain 1hr
in
rain 24hr
in
rain mn
in
humidity
%
barometer
mb
20260906224755 64 73 5.2 10.4 0.00 0.01 0.01 72 1016.1
20260906224255 64 62 5.2 11.3 0.00 0.01 0.01 73 1016.0
20260906223755 64 55 6.1 10.4 0.00 0.01 0.01 72 1016.0
20260906222755 64 54 1.7 5.2 0.00 0.01 0.01 74 1016.0
20260906221755 64 68 5.2 8.7 0.00 0.01 0.01 75 1015.9
20260906221255 63 42 1.7 6.1 0.00 0.01 0.01 75 1015.8
20260906220254 63 61 2.6 8.7 0.00 0.01 0.01 75 1015.8
20260906214254 61 60 2.6 10.4 0.00 0.01 0.01 80 1016.1
20260906212255 60 61 6.1 10.4 0.00 0.01 0.01 81 1016.3
20260906210255 60 68 6.1 10.4 0.00 0.01 0.01 83 1016.5
20260906205754 59 60 4.3 10.4 0.00 0.01 0.01 84 1016.2
20260906202755 59 71 2.6 10.4 0.00 0.01 0.01 87 1016.6
20260906201754 58 103 2.6 2.6 0.00 0.01 0.01 88 1017.0
20260906201254 58 103 1.7 6.1 0.00 0.01 0.01 88 1017.1
20260906195755 57 103 2.6 5.2 0.01 0.01 0.01 89 1017.1
20260906195255 57 103 2.6 6.1 0.01 0.01 0.01 89 1017.2
20260906192755 58 100 4.3 6.1 0.01 0.01 0.01 88 1017.4
20260906191755 58 101 1.7 6.1 0.01 0.01 0.01 91 1017.4
20260906191255 57 105 2.6 6.1 0.01 0.01 0.01 90 1017.4
20260906190755 57 105 4.3 6.1 0.01 0.01 0.01 89 1017.5
20260906184255 57 111 2.6 5.2 0.00 0.00 0.00 86 1017.8
20260906183255 58 117 4.3 6.1 0.00 0.00 0.00 84 1018.0
20260906182756 58 117 2.6 6.1 0.00 0.00 0.00 83 1018.1
20260906182255 58 118 4.3 7.0 0.00 0.00 0.00 82 1018.1
20260906181255 58 119 5.2 7.0 0.00 0.00 0.00 81 1018.4
20260906180756 58 121 4.3 7.0 0.00 0.00 0.00 82 1018.4
20260906175755 58 122 4.3 7.0 0.00 0.00 0.00 82 1018.3
20260906174756 58 123 4.3 7.0 0.00 0.00 0.00 83 1018.4
20260906173255 57 128 2.6 6.1 0.00 0.00 0.00 86 1018.5
20260906171255 56 128 3.5 7.0 0.00 0.00 0.00 89 1018.8
20260906170254 56 127 2.6 6.1 0.00 0.00 0.00 89 1019.0
20260906165755 56 127 3.5 6.1 0.00 0.00 0.00 90 1019.1
20260906163755 55 113 1.7 6.1 0.00 0.00 0.00 92 1018.9
20260906163254 55 113 2.6 5.2 0.00 0.00 0.00 93 1019.2
20260906162756 55 113 1.7 6.1 0.00 0.00 0.00 93 1019.3
20260906161254 55 113 3.5 6.1 0.00 0.00 0.00 94 1019.2
20260906155754 54 105 3.5 6.1 0.00 0.00 0.00 95 1019.0
20260906153255 54 97 2.6 7.0 0.00 0.00 0.00 96 1018.9
20260906152755 54 95 1.7 5.2 0.00 0.00 0.00 95 1019.0
20260906151756 54 80 2.6 8.7 0.00 0.00 0.00 96 1018.8
20260906151255 54 73 4.3 11.3 0.00 0.00 0.00 96 1018.8
20260906150256 54 81 2.6 13.0 0.00 0.00 0.00 96 1018.8
20260906145257 53 72 4.3 8.7 0.00 0.00 0.00 96 1018.6
20260906144255 53 78 2.6 7.0 0.00 0.00 0.00 96 1018.7
20260906143255 53 78 1.7 7.0 0.00 0.00 0.00 96 1018.7
20260906142756 53 79 2.6 6.1 0.00 0.00 0.00 96 1018.8
20260906142255 53 76 1.7 4.3 0.00 0.00 0.00 96 1018.9
20260906141755 53 74 2.6 7.0 0.00 0.00 0.00 96 1018.9
20260906140755 53 75 2.6 7.0 0.00 0.00 0.00 96 1019.1
20260906135755 53 77 2.6 6.1 0.00 0.00 0.00 96 1019.2
20260906135255 53 73 4.3 7.8 0.00 0.00 0.00 96 1019.2
20260906134255 53 80 0.9 4.3 0.00 0.00 0.00 96 1019.3
20260906133755 53 80 1.7 2.6 0.00 0.00 0.00 96 1019.3
20260906133255 53 80 0.9 2.6 0.00 0.00 0.00 96 1019.2
20260906125255 52 84 2.6 2.6 0.00 0.00 0.00 96 1018.7
20260906124756 52 84 1.7 2.6 0.00 0.00 0.00 96 1018.7
20260906123255 53 84 0.0 0.0 0.00 0.00 0.00 96 1018.9
20260906122756 53 84 0.0 0.0 0.00 0.00 0.00 96 1019.1
20260906122254 53 84 0.0 0.0 0.00 0.00 0.00 96 1019.3
20260906121255 53 84 0.0 0.9 0.00 0.00 0.00 96 1019.4
20260906120756 53 84 0.0 2.6 0.00 0.00 0.00 96 1019.4
20260906120255 53 84 0.9 2.6 0.00 0.00 0.00 96 1019.5
20260906115255 53 84 0.9 2.6 0.00 0.00 0.00 96 1019.8
20260906114755 53 84 1.7 2.6 0.00 0.00 0.00 96 1019.8
20260906114255 53 84 1.7 2.6 0.00 0.00 0.00 96 1019.8
20260906113256 53 80 1.7 2.6 0.00 0.00 0.00 96 1019.7
20260906112756 53 73 1.7 2.6 0.00 0.00 0.00 96 1019.6
20260906112256 53 71 1.7 2.6 0.00 0.00 0.00 96 1019.4
20260906111255 53 71 3.5 7.0 0.00 0.00 0.00 96 1019.3
20260906110755 53 68 2.6 8.7 0.00 0.00 0.00 96 1019.4
20260906110255 53 49 1.7 2.6 0.00 0.00 0.00 96 1019.6
20260906105755 53 49 1.7 4.3 0.00 0.00 0.00 96 1019.9
20260906105255 53 49 0.9 2.6 0.00 0.00 0.00 96 1019.9
20260906102255 53 48 3.5 4.3 0.00 0.00 0.00 96 1020.0
20260906101755 53 48 1.7 2.6 0.00 0.00 0.00 96 1020.2
20260906100755 53 48 1.7 2.6 0.00 0.00 0.00 96 1020.1
20260906095757 53 48 1.7 2.6 0.00 0.00 0.00 96 1020.3
20260906094255 53 48 0.0 0.0 0.00 0.00 0.00 96 1020.6
20260906092755 53 48 0.9 1.7 0.00 0.00 0.00 96 1020.6
20260906091755 53 48 0.9 1.7 0.00 0.00 0.00 96 1020.6
20260906091255 53 48 0.0 0.0 0.00 0.00 0.00 95 1020.5
20260906085756 53 48 0.0 0.0 0.00 0.00 0.00 95 1020.9
20260906085256 53 48 0.0 0.0 0.00 0.00 0.00 95 1020.9
20260906084756 53 48 0.0 0.0 0.00 0.00 0.00 95 1020.9
20260906083755 53 48 0.0 0.0 0.00 0.00 0.00 95 1020.9
20260906082756 53 48 0.0 0.0 0.00 0.00 0.00 95 1020.9
20260906082255 53 48 0.0 0.0 0.00 0.00 0.00 95 1021.0
20260906081755 53 48 0.0 0.0 0.00 0.00 0.00 95 1021.0
20260906074255 53 48 0.9 1.7 0.00 0.00 0.00 95 1021.1
20260906072756 53 48 0.0 0.0 0.00 0.00 0.00 95 1021.3
20260906071756 53 48 0.0 0.0 0.00 0.00 0.00 95 1021.2
20260906071255 53 48 0.0 1.7 0.00 0.00 0.00 95 1021.1
20260906064256 53 48 1.7 2.6 0.00 0.00 0.00 95 1021.0
20260906063756 53 48 1.7 2.6 0.00 0.00 0.00 95 1021.1
20260906061756 53 48 1.7 2.6 0.00 0.00 0.00 95 1021.2
20260906061256 53 48 1.7 2.6 0.00 0.00 0.00 95 1021.1
20260906060830 53 48 0.9 2.6 0.00 0.00 0.00 95 1021.0
20260906055756 53 48 0.9 2.6 0.00 0.00 0.00 95 1021.0
20260906055256 53 48 0.9 2.6 0.00 0.00 0.00 94 1021.0
20260906054756 53 48 0.9 2.6 0.00 0.00 0.00 94 1021.0
20260906054256 53 48 1.7 2.6 0.00 0.00 0.00 94 1020.9
20260906053755 53 48 1.7 2.6 0.00 0.00 0.00 94 1021.0
20260906053256 53 48 1.7 2.6 0.00 0.00 0.00 94 1021.0
20260906052756 53 48 0.9 2.6 0.00 0.00 0.00 94 1021.1
20260906045255 53 48 1.7 2.6 0.00 0.00 0.00 94 1020.8
20260906044756 53 48 1.7 2.6 0.00 0.00 0.00 94 1020.9
20260906043755 53 48 1.7 2.6 0.00 0.00 0.00 94 1021.1
20260906043256 53 48 2.6 4.3 0.00 0.00 0.00 94 1021.1
20260906042756 53 49 4.3 6.1 0.00 0.00 0.00 94 1021.0
20260906042256 53 53 3.5 7.8 0.00 0.00 0.00 94 1021.0
20260906041755 53 38 1.7 5.2 0.00 0.00 0.00 94 1020.9
20260906041256 53 38 1.7 2.6 0.00 0.00 0.00 94 1020.9
20260906035756 53 37 3.5 5.2 0.00 0.00 0.00 94 1020.9
20260906035255 53 37 2.6 5.2 0.00 0.00 0.00 94 1020.8
20260906034756 53 30 1.7 4.3 0.00 0.00 0.00 94 1020.7
20260906034255 53 5 2.6 4.3 0.00 0.00 0.00 94 1020.7
20260906033256 53 9 2.6 4.3 0.00 0.00 0.00 94 1020.7
20260906031255 53 9 2.6 2.6 0.00 0.00 0.00 93 1020.7
20260906030756 53 13 1.7 2.6 0.00 0.00 0.00 93 1020.7
20260906025256 53 346 1.7 2.6 0.00 0.00 0.00 93 1020.5
20260906024756 53 346 1.7 2.6 0.00 0.00 0.00 93 1020.5
20260906024255 53 346 1.7 2.6 0.00 0.00 0.00 93 1020.5
20260906023755 53 346 0.9 2.6 0.00 0.00 0.00 93 1020.4
20260906022255 53 349 2.6 2.6 0.00 0.00 0.00 93 1020.5
20260906021756 53 350 2.6 2.6 0.00 0.00 0.00 93 1020.5
20260906020756 53 16 1.7 2.6 0.00 0.00 0.00 92 1020.4
20260906014255 53 16 1.7 2.6 0.00 0.00 0.00 92 1020.5
20260906013755 53 16 1.7 2.6 0.00 0.00 0.00 92 1020.5
20260906013256 53 16 1.7 2.6 0.00 0.00 0.00 92 1020.5
20260906012756 53 16 1.7 2.6 0.00 0.00 0.00 91 1020.5
20260906011755 54 16 0.9 1.7 0.00 0.00 0.00 91 1020.4
20260906011255 54 16 0.9 1.7 0.00 0.00 0.00 91 1020.5
20260906005756 54 16 1.7 2.6 0.00 0.00 0.00 90 1020.3
20260906005255 54 16 1.7 4.3 0.00 0.00 0.00 90 1020.3
20260906004757 54 15 2.6 4.3 0.00 0.00 0.00 90 1020.3
20260906003256 54 14 2.6 6.1 0.00 0.00 0.00 89 1020.1
20260906002256 55 18 2.6 6.1 0.00 0.00 0.00 89 1020.0
20260906001755 55 5 2.6 6.1 0.00 0.00 0.00 89 1020.0
20260906001255 55 13 4.3 7.0 0.00 0.00 0.00 89 1019.9
20260906000757 55 32 2.6 5.2 0.00 0.00 0.00 89 1019.9
20260905235756 55 35 4.3 8.7 0.00 0.00 0.00 89 1019.8
20260905234255 55 20 3.5 6.1 0.00 0.00 0.00 89 1019.8
20260905233755 55 1 4.3 7.8 0.00 0.00 0.00 89 1019.7
20260905232756 55 13 3.5 7.8 0.00 0.00 0.00 88 1019.7
20260905231755 55 17 4.3 7.8 0.00 0.00 0.00 88 1019.7
20260905231255 55 34 4.3 7.8 0.00 0.00 0.00 88 1019.6
20260905230256 55 13 4.3 7.0 0.00 0.00 0.00 88 1019.6